Simultaneous Nadir Overpasses (SNOs) Predictions

Prediction of SNOs between METOP-C and LANDSAT-8 Satellite Orbit:

Table of predicted SNOs for the next 14.0 days since TLE Epoch: 7/4/2020
Index Date (METOP-C) Time (METOP-C) Lat,Lon (METOP-C) SZA (METOP-C ) Date (LANDSAT-8) Time (LANDSAT-8) Lat,Lon (LANDSAT-8) SZA (LANDSAT-8 ) Distance(km) Time Diff (sec)
1 07/05/2020 06:28:20 81.12, 122.75 60.43 07/05/2020 06:29:25 81.12, 122.61 60.44 2.45 65
2 07/05/2020 07:19:00 -81.14, -69.47 119.51 07/05/2020 07:18:51 -81.14, -69.44 119.51 0.36 9
3 07/08/2020 02:02:42 81.13,-170.74 60.73 07/08/2020 02:03:41 81.13,-170.82 60.75 1.28 59
4 07/08/2020 02:53:22 -81.14, -2.97 119.21 07/08/2020 02:53:07 -81.15, -2.85 119.20 2.30 15
5 07/10/2020 21:37:04 81.12,-104.62 61.03 07/10/2020 21:37:57 81.11,-104.63 61.05 0.59 53
6 07/10/2020 22:27:42 -81.16, 63.89 118.82 07/10/2020 22:27:22 -81.16, 63.73 118.84 2.68 20
7 07/13/2020 17:11:26 81.12, -38.14 61.43 07/13/2020 17:12:13 81.12, -38.10 61.45 0.60 47
8 07/13/2020 18:02:05 -81.15, 129.97 118.47 07/13/2020 18:01:39 -81.14, 129.91 118.49 1.21 26
9 07/16/2020 12:45:48 81.12, 28.34 61.88 07/16/2020 12:46:29 81.12, 28.40 61.90 1.08 41
